Location: Gloden
(48.4833°N, 15.3167°E)
Time: 16:45:19
(UTC+00:00)

COSMO-SKYMED 1 - Pass Details

Date: 15 December 2019
Orbit: 621 x 623 km, 97.9° (Epoch: 21 January)

Event Time Altitude Azimuth Distance (km) Brightness Sun altitude
Rises 03:58:55 0° 163° (SSE) 2,893 6.3 -26.1°
Reaches altitude 10° 04:01:05 10° 162° (SSE) 1,991 5.4 -25.7°
Enters shadow 04:05:18 82° 116° (ESE) 637 2.5 -25.0°
